RYR3591 LGSA-LCPH

Flight info

Callsign RYR3591
Flight time 1h 3m
Altitude 37000
Route BAVES UJ65 SIT UM978 TOSKA M978 TOBAL
Aircraft B738/M-SDE2E3FGHIRWXY/LB1

Departure

Time 2026-04-28 08:36
Airport Chania International Airport (LGSA)

Arrival

Time 2026-04-28 09:40
Airport Paphos International Airport (LCPH)
Time Latitude Longitude Altitude Speed Heading
2026-04-28 08:32 35.53869 24.13935 489 ft 2 kts 21°
2026-04-28 08:32 35.53854 24.13928 489 ft 2 kts 21°
2026-04-28 08:32 35.53847 24.13925 489 ft 0 kts 21°
2026-04-28 08:34 35.53863 24.13923 486 ft 7 kts 331°
2026-04-28 08:34 35.53834 24.13836 493 ft 18 kts 220°
2026-04-28 08:35 35.53761 24.13736 497 ft 18 kts 296°
2026-04-28 08:35 35.53810 24.13596 496 ft 18 kts 292°
2026-04-28 08:35 35.53776 24.13486 497 ft 17 kts 202°
2026-04-28 08:35 35.53668 24.13462 493 ft 15 kts 140°
2026-04-28 08:36 35.53567 24.13774 499 ft 78 kts 111°
2026-04-28 08:36 35.53272 24.14678 489 ft 147 kts 111°
2026-04-28 08:36 35.52830 24.16025 795 ft 180 kts 112°
2026-04-28 08:36 35.52329 24.17532 1445 ft 200 kts 108°
2026-04-28 08:37 35.52356 24.19098 2703 ft 176 kts 57°
2026-04-28 08:37 35.53192 24.20030 3764 ft 158 kts 20°
2026-04-28 08:37 35.54213 24.20525 4180 ft 175 kts 44°
2026-04-28 08:37 35.54933 24.21918 4250 ft 205 kts 77°
2026-04-28 08:38 35.54836 24.23701 4532 ft 208 kts 96°
2026-04-28 08:38 35.54633 24.25391 4706 ft 198 kts 98°
2026-04-28 08:38 35.54314 24.27112 4812 ft 211 kts 103°
2026-04-28 08:38 35.53879 24.28818 5466 ft 214 kts 105°
2026-04-28 08:39 35.53393 24.30657 5676 ft 240 kts 104°
2026-04-28 08:39 35.52936 24.32682 6211 ft 248 kts 100°
2026-04-28 08:39 35.52586 24.34771 6899 ft 251 kts 98°
2026-04-28 08:39 35.52266 24.36891 7573 ft 254 kts 98°
2026-04-28 08:40 35.51957 24.39038 8279 ft 256 kts 98°
2026-04-28 08:40 35.51656 24.41205 8988 ft 258 kts 98°
2026-04-28 08:40 35.51359 24.43387 9678 ft 262 kts 100°
2026-04-28 08:40 35.50675 24.45538 9808 ft 286 kts 119°
2026-04-28 08:41 35.49697 24.47692 9979 ft 290 kts 116°
2026-04-28 08:41 35.48818 24.49928 10072 ft 291 kts 113°
2026-04-28 08:41 35.48035 24.52223 10103 ft 293 kts 111°
2026-04-28 08:41 35.47332 24.54523 10548 ft 285 kts 109°
2026-04-28 08:42 35.46652 24.56904 10758 ft 307 kts 108°
2026-04-28 08:42 35.45948 24.59476 10928 ft 329 kts 108°
2026-04-28 08:42 35.45215 24.62222 11144 ft 348 kts 107°
2026-04-28 08:42 35.44463 24.65081 11651 ft 355 kts 107°
2026-04-28 08:43 35.43713 24.67948 12277 ft 360 kts 107°
2026-04-28 08:43 35.42944 24.70886 12923 ft 363 kts 107°
2026-04-28 08:43 35.42176 24.73853 13584 ft 368 kts 106°
2026-04-28 08:43 35.41441 24.76878 14160 ft 373 kts 105°
2026-04-28 08:44 35.40715 24.79948 14823 ft 375 kts 105°
2026-04-28 08:44 35.39991 24.83035 15430 ft 379 kts 105°
2026-04-28 08:44 35.39255 24.86167 16010 ft 383 kts 105°
2026-04-28 08:44 35.38511 24.89321 16617 ft 386 kts 105°
2026-04-28 08:45 35.37756 24.92508 17173 ft 391 kts 105°
2026-04-28 08:45 35.37002 24.95680 17753 ft 394 kts 105°
2026-04-28 08:45 35.36226 24.98935 18320 ft 398 kts 105°
2026-04-28 08:45 35.35445 25.02201 18845 ft 401 kts 105°
2026-04-28 08:46 35.34653 25.05503 19274 ft 406 kts 105°
2026-04-28 08:46 35.33856 25.08826 19865 ft 406 kts 105°
2026-04-28 08:46 35.33054 25.12165 20322 ft 411 kts 105°
2026-04-28 08:46 35.32243 25.15536 20839 ft 413 kts 105°
2026-04-28 08:47 35.31428 25.18917 21297 ft 417 kts 105°
2026-04-28 08:47 35.30604 25.22337 21747 ft 420 kts 105°
2026-04-28 08:47 35.29784 25.25731 22241 ft 422 kts 105°
2026-04-28 08:47 35.28949 25.29180 22704 ft 424 kts 105°
2026-04-28 08:48 35.28105 25.32667 23122 ft 428 kts 105°
2026-04-28 08:48 35.27254 25.36173 23573 ft 431 kts 105°
2026-04-28 08:48 35.26397 25.39701 23951 ft 433 kts 105°
2026-04-28 08:48 35.25536 25.43241 24307 ft 436 kts 105°
2026-04-28 08:49 35.24668 25.46806 24651 ft 439 kts 105°
2026-04-28 08:49 35.23791 25.50398 25004 ft 441 kts 105°
2026-04-28 08:49 35.22910 25.54006 25339 ft 444 kts 106°
2026-04-28 08:49 35.22032 25.57596 25670 ft 447 kts 106°
2026-04-28 08:50 35.21137 25.61248 25987 ft 449 kts 106°
2026-04-28 08:50 35.20237 25.64916 26307 ft 452 kts 106°
2026-04-28 08:50 35.19326 25.68623 26605 ft 455 kts 106°
2026-04-28 08:50 35.18412 25.72339 26916 ft 457 kts 106°
2026-04-28 08:51 35.17493 25.76068 27211 ft 460 kts 106°
2026-04-28 08:51 35.16567 25.79821 27510 ft 462 kts 106°
2026-04-28 08:51 35.15636 25.83585 27785 ft 464 kts 107°
2026-04-28 08:51 35.14698 25.87376 28083 ft 467 kts 107°
2026-04-28 08:52 35.13767 25.91130 28357 ft 469 kts 107°
2026-04-28 08:52 35.12817 25.94957 28625 ft 472 kts 107°
2026-04-28 08:52 35.11861 25.98803 28891 ft 474 kts 107°
2026-04-28 08:52 35.10887 26.02717 29142 ft 477 kts 107°
2026-04-28 08:53 35.09931 26.06552 29385 ft 479 kts 107°
2026-04-28 08:53 35.08960 26.10446 29693 ft 480 kts 107°
2026-04-28 08:53 35.07985 26.14344 30099 ft 479 kts 107°
2026-04-28 08:53 35.07126 26.18263 30422 ft 478 kts 101°
2026-04-28 08:54 35.06715 26.22276 30706 ft 477 kts 91°
2026-04-28 08:54 35.06693 26.26322 31027 ft 475 kts 89°
2026-04-28 08:54 35.06721 26.30351 31333 ft 475 kts 88°
2026-04-28 08:54 35.06758 26.34377 31613 ft 474 kts 88°
2026-04-28 08:55 35.06788 26.38411 31911 ft 473 kts 89°
2026-04-28 08:55 35.06805 26.42423 32212 ft 473 kts 89°
2026-04-28 08:55 35.06811 26.46434 32501 ft 472 kts 89°
2026-04-28 08:55 35.06808 26.50430 32780 ft 471 kts 89°
2026-04-28 08:56 35.06799 26.54430 33057 ft 470 kts 89°
2026-04-28 08:56 35.06787 26.58423 33319 ft 470 kts 89°
2026-04-28 08:56 35.06773 26.62412 33569 ft 470 kts 89°
2026-04-28 08:56 35.06758 26.66356 33810 ft 470 kts 89°
2026-04-28 08:57 35.06741 26.70344 34064 ft 469 kts 89°
2026-04-28 08:57 35.06724 26.74325 34256 ft 469 kts 89°
2026-04-28 08:57 35.06706 26.78303 34402 ft 470 kts 89°
2026-04-28 08:57 35.06687 26.82295 34585 ft 470 kts 89°
2026-04-28 08:58 35.06666 26.86286 34758 ft 470 kts 89°
2026-04-28 08:58 35.06644 26.90283 34899 ft 471 kts 89°
2026-04-28 08:58 35.06621 26.94296 35000 ft 472 kts 90°
2026-04-28 08:59 35.06571 27.02318 35016 ft 472 kts 90°
2026-04-28 08:59 35.06515 27.10336 35029 ft 472 kts 90°
2026-04-28 09:00 35.06453 27.18345 35032 ft 472 kts 90°
2026-04-28 09:00 35.06387 27.26357 35015 ft 471 kts 90°
2026-04-28 09:01 35.06316 27.34310 35022 ft 471 kts 90°
2026-04-28 09:01 35.06239 27.42318 35016 ft 471 kts 90°
2026-04-28 09:02 35.06157 27.50306 35005 ft 471 kts 90°
2026-04-28 09:02 35.06070 27.58299 35013 ft 471 kts 90°
2026-04-28 09:03 35.05978 27.66294 35006 ft 470 kts 90°
2026-04-28 09:03 35.05881 27.74232 35011 ft 470 kts 90°
2026-04-28 09:04 35.05778 27.82207 35015 ft 470 kts 90°
2026-04-28 09:04 35.05670 27.90185 35009 ft 470 kts 90°
2026-04-28 09:05 35.05557 27.98153 35001 ft 470 kts 90°
2026-04-28 09:05 35.05439 28.06125 35004 ft 469 kts 90°
2026-04-28 09:06 35.05316 28.14086 35003 ft 469 kts 90°
2026-04-28 09:06 35.05187 28.22047 34992 ft 469 kts 91°
2026-04-28 09:07 35.05054 28.29999 35000 ft 468 kts 91°
2026-04-28 09:07 35.04916 28.37898 34991 ft 468 kts 91°
2026-04-28 09:08 35.04772 28.45847 34995 ft 468 kts 91°
2026-04-28 09:08 35.04623 28.53795 34997 ft 468 kts 91°
2026-04-28 09:09 35.04469 28.61746 34990 ft 468 kts 91°
2026-04-28 09:09 35.04310 28.69642 34988 ft 468 kts 91°
2026-04-28 09:10 35.04146 28.77582 34994 ft 468 kts 91°
2026-04-28 09:10 35.03976 28.85535 34994 ft 468 kts 91°
2026-04-28 09:11 35.03801 28.93476 34991 ft 468 kts 91°
2026-04-28 09:11 35.03621 29.01423 34990 ft 469 kts 91°
2026-04-28 09:12 35.03436 29.09374 34992 ft 469 kts 91°
2026-04-28 09:12 35.03245 29.17326 34979 ft 469 kts 91°
2026-04-28 09:13 35.03050 29.25275 34990 ft 469 kts 92°
2026-04-28 09:13 35.02850 29.33187 34989 ft 469 kts 92°
2026-04-28 09:14 35.02643 29.41145 34984 ft 469 kts 92°
2026-04-28 09:14 35.02432 29.49106 34979 ft 469 kts 92°
2026-04-28 09:15 35.02215 29.57059 34985 ft 469 kts 92°
2026-04-28 09:15 35.01993 29.65015 34986 ft 469 kts 92°
2026-04-28 09:16 35.01766 29.72971 34985 ft 469 kts 92°
2026-04-28 09:16 35.01533 29.80939 34985 ft 469 kts 92°
2026-04-28 09:17 35.01302 29.88708 34962 ft 447 kts 92°
2026-04-28 09:17 35.01073 29.96199 34973 ft 442 kts 92°
2026-04-28 09:17 35.00957 29.99969 34535 ft 448 kts 92°
2026-04-28 09:18 35.00838 30.03771 34082 ft 446 kts 92°
2026-04-28 09:18 35.00718 30.07561 33560 ft 445 kts 92°
2026-04-28 09:18 35.00598 30.11334 33025 ft 444 kts 92°
2026-04-28 09:18 35.00478 30.15052 32511 ft 443 kts 92°
2026-04-28 09:19 35.00356 30.18809 31997 ft 442 kts 92°
2026-04-28 09:19 35.00234 30.22546 31496 ft 441 kts 92°
2026-04-28 09:19 35.00110 30.26289 30991 ft 441 kts 92°
2026-04-28 09:19 34.99985 30.30024 30512 ft 440 kts 92°
2026-04-28 09:20 34.99859 30.33752 30019 ft 439 kts 92°
2026-04-28 09:20 34.99733 30.37466 29465 ft 437 kts 92°
2026-04-28 09:20 34.99606 30.41169 28916 ft 436 kts 92°
2026-04-28 09:20 34.99521 30.43615 28554 ft 434 kts 92°
2026-04-28 09:21 34.99394 30.47283 28027 ft 433 kts 92°
2026-04-28 09:21 34.99223 30.52133 27332 ft 430 kts 92°
2026-04-28 09:21 34.99094 30.55771 26820 ft 428 kts 92°
2026-04-28 09:21 34.98964 30.59399 26316 ft 426 kts 92°
2026-04-28 09:22 34.98877 30.61801 25987 ft 425 kts 92°
2026-04-28 09:22 34.98747 30.65389 25498 ft 423 kts 92°
2026-04-28 09:22 34.98615 30.68970 25017 ft 421 kts 92°
2026-04-28 09:22 34.98484 30.72529 24545 ft 419 kts 92°
2026-04-28 09:23 34.98352 30.76074 24079 ft 417 kts 92°
2026-04-28 09:23 34.98220 30.79597 23623 ft 416 kts 92°
2026-04-28 09:23 34.98087 30.83115 23086 ft 414 kts 92°
2026-04-28 09:23 34.97954 30.86614 22550 ft 412 kts 92°
2026-04-28 09:24 34.97820 30.90103 22013 ft 410 kts 92°
2026-04-28 09:24 34.97686 30.93563 21498 ft 408 kts 92°
2026-04-28 09:24 34.97552 30.97017 20989 ft 406 kts 92°
2026-04-28 09:24 34.97418 31.00421 20490 ft 404 kts 92°
2026-04-28 09:25 34.97283 31.03834 19991 ft 403 kts 92°
2026-04-28 09:25 34.97148 31.07237 19518 ft 401 kts 92°
2026-04-28 09:25 34.97012 31.10634 19041 ft 399 kts 92°
2026-04-28 09:25 34.96875 31.14011 18568 ft 397 kts 92°
2026-04-28 09:26 34.96739 31.17373 18079 ft 396 kts 92°
2026-04-28 09:26 34.96602 31.20719 17552 ft 394 kts 92°
2026-04-28 09:26 34.96465 31.24057 17028 ft 392 kts 92°
2026-04-28 09:26 34.96328 31.27368 16520 ft 391 kts 92°
2026-04-28 09:27 34.96054 31.33913 15522 ft 387 kts 92°
2026-04-28 09:27 34.95916 31.37187 15026 ft 385 kts 92°
2026-04-28 09:27 34.95778 31.40449 14552 ft 384 kts 92°
2026-04-28 09:28 34.95639 31.43693 14078 ft 382 kts 93°
2026-04-28 09:28 34.95500 31.46918 13596 ft 380 kts 93°
2026-04-28 09:28 34.95361 31.50131 13068 ft 379 kts 93°
2026-04-28 09:28 34.95221 31.53330 12552 ft 377 kts 93°
2026-04-28 09:29 34.95081 31.56521 12040 ft 375 kts 93°
2026-04-28 09:29 34.94941 31.59690 11545 ft 373 kts 93°
2026-04-28 09:29 34.94802 31.62840 11047 ft 372 kts 93°
2026-04-28 09:29 34.94661 31.65979 10563 ft 370 kts 93°
2026-04-28 09:30 34.94525 31.69024 10075 ft 360 kts 93°
2026-04-28 09:30 34.94389 31.72029 9658 ft 348 kts 92°
2026-04-28 09:30 34.94258 31.74920 9284 ft 336 kts 92°
2026-04-28 09:30 34.94130 31.77721 8914 ft 325 kts 93°
2026-04-28 09:31 34.94006 31.80432 8554 ft 316 kts 93°
2026-04-28 09:31 34.93884 31.83069 8190 ft 307 kts 93°
2026-04-28 09:31 34.93766 31.85640 7831 ft 300 kts 93°
2026-04-28 09:31 34.93649 31.88148 7484 ft 293 kts 93°
2026-04-28 09:32 34.93208 31.90529 7108 ft 288 kts 119°
2026-04-28 09:32 34.92141 31.92580 6822 ft 286 kts 125°
2026-04-28 09:32 34.91052 31.94581 6486 ft 288 kts 121°
2026-04-28 09:32 34.90135 31.96745 6149 ft 288 kts 116°
2026-04-28 09:33 34.89298 31.98969 5801 ft 289 kts 115°
2026-04-28 09:33 34.88466 32.01199 5455 ft 288 kts 115°
2026-04-28 09:33 34.87634 32.03399 5093 ft 283 kts 116°
2026-04-28 09:33 34.86808 32.05545 4747 ft 277 kts 116°
2026-04-28 09:34 34.85987 32.07654 4470 ft 274 kts 117°
2026-04-28 09:34 34.85168 32.09741 4196 ft 273 kts 117°
2026-04-28 09:34 34.84353 32.11807 4013 ft 267 kts 117°
2026-04-28 09:34 34.83563 32.13803 3968 ft 255 kts 117°
2026-04-28 09:35 34.82800 32.15729 3961 ft 251 kts 117°
2026-04-28 09:35 34.82032 32.17662 3750 ft 253 kts 117°
2026-04-28 09:35 34.81269 32.19579 3521 ft 250 kts 117°
2026-04-28 09:35 34.80514 32.21478 3303 ft 247 kts 117°
2026-04-28 09:36 34.79767 32.23353 3099 ft 245 kts 117°
2026-04-28 09:36 34.79034 32.25191 2984 ft 238 kts 117°
2026-04-28 09:36 34.78330 32.26957 2953 ft 225 kts 117°
2026-04-28 09:36 34.77711 32.28650 2775 ft 219 kts 112°
2026-04-28 09:37 34.77202 32.30365 2540 ft 212 kts 111°
2026-04-28 09:37 34.76713 32.32042 2290 ft 208 kts 111°
2026-04-28 09:37 34.76230 32.33683 2049 ft 203 kts 111°
2026-04-28 09:37 34.75760 32.35274 1742 ft 200 kts 111°
2026-04-28 09:38 34.75284 32.36880 1392 ft 200 kts 111°
2026-04-28 09:38 34.74825 32.38458 1169 ft 195 kts 110°
2026-04-28 09:38 34.74413 32.39987 876 ft 186 kts 111°
2026-04-28 09:38 34.73969 32.41393 683 ft 172 kts 111°
2026-04-28 09:39 34.73539 32.42745 507 ft 173 kts 110°
2026-04-28 09:39 34.73120 32.44119 427 ft 170 kts 110°
2026-04-28 09:39 34.72727 32.45446 335 ft 165 kts 110°
2026-04-28 09:39 34.72347 32.46735 116 ft 156 kts 108°
2026-04-28 09:40 34.71991 32.47927 47 ft 141 kts 110°
2026-04-28 09:40 34.71803 32.48546 45 ft 31 kts 110°
2026-04-28 09:40 34.71727 32.48794 46 ft 30 kts 110°
2026-04-28 09:40 34.71677 32.48961 47 ft 15 kts 110°
2026-04-28 09:41 34.71603 32.49004 46 ft 13 kts 207°
2026-04-28 09:41 34.71522 32.48961 45 ft 12 kts 213°
2026-04-28 09:41 34.71485 32.48879 45 ft 11 kts 246°
2026-04-28 09:41 34.71459 32.48809 45 ft 7 kts 245°
2026-04-28 09:42 34.71438 32.48796 45 ft 0 kts 176°
2026-04-28 09:42 34.71387 32.48835 45 ft 7 kts 155°
2026-04-28 09:42 34.71381 32.48839 45 ft 1 kts 155°
2026-04-28 09:42 34.71376 32.48841 45 ft 0 kts 155°